ANTARES DEB

Last updated on Thu Feb 24 2022 00:02:02 GMT+0000 (Coordinated Universal Time)

1 51767U 22015C 22051.57827222 -.00003924 12409-4 00000+0 0 9999 2 51767 51.6224 193.8130 0046004 156.8566 204.4965 16.39781885 134

Satellite not in orbit